Location: Martin
(32.0982°N, 93.2193°W)
Time: 17:56:33
(UTC+00:00)

ARIANE 6 FM1 Upper Stage - Pass Details

Date: 24 September 2024
Orbit: 563 x 595 km, 62.0° (Epoch: 12 October)

Event Time Altitude Azimuth Distance (km) Brightness Sun altitude
Exits shadow 11:04:30 11° 218° (SW) 1,879 4.9 -13.1°
Drops below altitude 10° 11:04:42 10° 216° (SW) 1,921 5.0 -13.1°
Sets 11:07:52 0° 191° (SSW) 2,814 6.0 -12.4°
